Location: Unspecified
(47.5840°N, 122.3000°W)
Time: 19:08:29
(UTC+00:00)

IRIDIUM 114 - Pass Details

Date: 18 March 2026
Orbit: 776 x 779 km, 86.4° (Epoch: 14 April)

Event Time Altitude Azimuth Distance (km) Brightness Sun altitude
Exits shadow 05:56:23 35° 291° (WNW) 1,241 5.7 -34.3°
Drops below altitude 10° 06:00:49 10° 348° (NNW) 2,342 7.4 -34.8°
Sets 06:03:23 0° 357° (N) 3,274 8.2 -35.1°
